EHI
0 0 0 0 0 0 0 0 0 0 0 0 0 0 0 0 0 0 0 0 0 0 0 0 0 0 0 0 0 0 0 0 0 0 0 0 0 0
0 0 0 0 0 0 0 0 0 0 0 0 0 0 0 0 0 0 0 0 0 0 0 0 0 0 0 0 0 0 0 0 0 0 0 0 0 0
0 0 0 0 0 0 0 0 0 0 0 0 0 0 0 0 0 0 0 0 0 0 0 0 0 0 0 0 0 0 0 0 0 0 0 0 0 0
0 0 0 0 0 0 0 0 0 0 0 0 0 0 0 0 0 0 0 0 0 0 0 0 0 0 0 0 0 0 0 0 0 0 0 0 0 0
0 0 0 0 0 0 0 0 0 0 0 0 0 0 0 0 0 0 0 0 0 0 0 0 0 0 0 0 0 0 0 0 0 0 0 0 0 0
0 0 0 0 0 0 0 0 0 0 0 0 0 0 0 0 0 0 0 0 0 0 0 0 0 0 0 0 0 0 0 0 0 0 0 0 0 0
0 0 0 0 0 0 0 0 0 0 0 0 0 0 0 0 0 0 0 0 0 0 0 0 0 0 0 0 0 0 0 0 0 0 0 0 0 0
0 0 0 0 0 0 0 0 0 0 0 0 0 0 0 0 0 0 0 0 0 0 0 0 0 0 0 0 0 0 0 0 0 0 0 0 0 0
0 0 0 0 0 0 0 0 0 0 0 0 0 0 0 0 0 0 0 0 0 0 0 0 0 0 0 0 0 0 0 0 0 0 0 0 0 0
0 0 0 0 0 0 0 0 0 0 0 0 0 0 0 0 0 0 0 0 0 0 0 0 0 0 0 0 0 0 0 0 0 0 0 0 0 0
0 0 0 0 0 0 0 0 0 0 0 0 0 0 0 0 0 0 0 0 0 0 0 0 0 0 0 0 0 0 0 0 0 0 0 0 0 0
0 0 0 0 0 0 0 0 0 0 0 0 0 0 0 0 0 0 0 0 0 0 0 0 0 0 0 0 0 0 0 0 0 0 0 0 0 0
0 0 0 0 0 0 0 0 0 0 0 0 0 0 0 0 0 0 0 0 0 0 0 0 0 0 0 0 0 0 0 0 0 0 0 0 0 0
0 0 0 0 0 0 0 0 0 0 0 0 0 0 0 0 0 0 0 0 0 0 0 0 0 0 0 0 0 0 0 0 0 0 0 0 0 0
0 0 0 0 0 0 0 0 0 0 0 0 0 0 0 0 0 0 0 0 0 0 0 0 0 0 0 0 0 0 0 0 0 0 0 0 0 0
0 0 0 0 0 0 0 0 0 0 0 0 0 0 0 0 0 0 0 0 0 0 0 0 0 0 0 0 0 0 0 0 0 0 0 0 0 0
0 0 0 0 0 0 0 0 0 0 0 0 0 0 0 0 0 0 0 0 0 0 0 0 0 0 0 0 0 0 0 0 0 0 0 0 0 0
0 0 0 0 0 0 0 0 0 0 0 0 0 0 0 0 0 0 0 0 0 0 0 0 0 0 0 0 0 0 0 0 0 0 0 0 0 0
0 0 0 0 0 0 0 0 0 0 0 0 0 0 0 0 0 0 0 0 0 0 0 0 0 0 0 0 0 0 0 0 0 0 0 0 0 0
0 0 0 0 0 0 0 0 0 0 0 0 0 0 0 0 0 0 0 0 0 0 0 0 0 0 0 0 0 0 0 0 0 0 0 0 0 0
0 0 0 0 0 0 0 0 0 0 0 0 0 0 0 0 0 0 0 0 0 0 0 0 0 0 0 0 0 0 0 0 0 0 0 0 0 0
0 0 0 0 0 0 0 0 0 0 0 0 0 0 0 0 0 0 0 0 0 0 0 0 0 0 0 0 0 0 0 0 0 0 0 0 0 0
0 0 0 0 0 0 0 0 0 0 0 0 0 0 0 0 0 0 0 0 0 0 0 0 0 0 0 0 0 0 0 0 0 0 0 0 0 0
Wind_Speed
1 1 1 1 1 2 2 2 2 2 1 1 1 1 2 3 4 3 3 5 5 5 5 5 5 5 6 6 6 6 6 6 7 7 7 7 8 8
1 2 1 1 2 2 1 1 1 2 2 1 1 2 2 3 4 3 3 7 5 5 4 4 4 4 4 5 5 5 5 5 5 5 6 6 7 7
1 2 1 1 2 1 1 1 2 3 3 1 1 2 2 2 2 2 3 3 3 5 4 4 3 3 3 3 4 4 4 4 4 4 5 5 5 6
1 2 2 2 2 1 1 2 2 2 3 3 1 1 1 2 2 2 3 3 3 5 6 4 3 3 2 2 2 2 2 3 3 4 4 4 5 5
1 2 2 3 2 1 2 2 2 2 2 3 2 1 1 1 1 1 2 1 3 4 6 5 4 3 2 1 1 1 1 2 2 3 3 4 4 5
1 1 2 2 2 2 2 2 2 3 2 2 2 1 1 1 1 1 1 1 2 2 3 4 5 5 3 2 1 1 1 1 1 2 2 3 4 5
1 1 2 4 4 3 2 2 2 2 2 2 1 1 1 1 1 1 1 1 1 1 2 2 3 2 3 4 4 3 2 2 2 2 2 3 4 5
2 2 2 3 4 5 5 5 4 3 2 2 1 2 2 2 1 1 1 0 2 2 1 2 2 2 3 3 4 4 4 4 4 3 3 4 4 5
2 2 2 3 3 3 3 3 2 2 3 3 2 2 2 2 2 1 1 2 3 2 1 2 1 2 2 3 6 6 6 6 5 5 5 5 5 6
2 3 3 3 3 3 2 2 1 1 2 2 2 2 2 2 2 3 3 2 1 1 1 2 2 2 2 2 5 6 7 6 6 5 6 6 6 6
2 2 3 3 4 4 2 2 2 1 2 3 3 2 2 2 2 1 0 0 2 2 1 1 1 1 2 2 3 5 5 6 6 6 6 6 6 6
1 1 2 3 4 4 3 3 2 2 2 2 2 2 2 2 2 3 2 2 1 2 1 1 1 0 2 2 1 2 3 5 6 6 7 7 6 3
2 2 1 4 5 4 2 2 3 2 2 2 2 2 1 1 2 2 2 3 3 3 2 1 1 1 1 2 2 2 2 2 2 3 5 6 6 4
1 1 2 5 5 4 3 3 3 2 1 1 1 1 1 2 2 2 2 2 3 3 3 2 2 2 1 2 3 2 2 2 2 2 2 4 5 6
1 2 2 4 3 3 4 4 3 2 2 2 2 2 2 2 1 1 1 1 1 2 1 1 1 1 1 2 2 2 2 2 1 2 2 2 2 2
1 2 3 3 2 2 3 3 3 3 3 3 2 2 1 1 1 1 1 1 0 2 2 1 2 2 2 2 2 3 2 2 2 2 2 3 3 3
2 2 2 2 2 2 2 2 2 2 2 2 2 2 2 2 2 1 1 1 1 2 2 2 2 2 3 2 2 3 3 3 3 3 2 3 4 3
3 2 3 3 3 3 3 3 3 3 3 2 2 2 2 2 2 2 2 2 2 3 3 2 1 1 2 3 4 4 3 4 3 3 2 3 5 4
3 3 3 3 3 3 3 3 3 3 2 2 2 2 2 2 2 2 2 2 3 3 3 2 2 2 2 4 4 4 4 3 3 3 3 3 5 5
3 3 4 4 3 3 3 3 3 2 2 2 2 2 2 2 2 2 2 2 3 2 2 2 2 3 4 4 4 4 5 4 3 4 4 3 4 5
4 4 4 4 4 4 3 3 3 3 3 3 3 3 2 2 2 2 2 3 3 2 3 3 4 4 2 1 2 3 3 5 6 4 3 3 4 4
4 4 4 4 3 3 3 3 3 3 3 3 3 3 2 2 3 3 3 2 3 3 3 3 2 1 1 2 4 4 4 4 4 7 6 5 3 4
5 4 4 4 3 3 3 3 4 3 3 3 3 3 3 2 2 2 2 2 2 2 2 2 1 1 2 2 3 4 5 5 3 3 4 6 8 10
Wind_Direction
68 73 88 79 75 76 92 123 135 132 134 152 125 129 117 112 133 133 123 110 104 97 90 81 74 68 64 61 58 58 54 50 47 41 37 35 34 32
77 67 64 73 76 77 72 48 73 126 131 140 148 152 137 134 142 141 136 127 125 119 109 98 88 80 73 66 59 58 53 51 47 39 35 32 29 26
153 121 102 92 103 102 92 72 61 88 112 113 115 128 123 130 132 148 140 144 150 147 135 121 107 95 81 70 57 52 47 41 35 27 23 19 18 16
135 126 126 106 92 91 104 105 101 105 127 136 136 142 157 161 161 169 162 165 167 163 157 151 142 129 110 79 55 44 38 29 20 13 7 6 5 5
159 145 147 135 143 141 128 117 120 113 114 132 151 148 171 169 152 181 180 184 177 165 169 175 174 173 177 161 91 27 17 10 4 358 355 351 346 347
93 117 120 131 135 144 133 131 129 120 120 128 147 162 166 192 145 199 254 234 212 176 182 181 188 194 201 203 207 248 281 305 327 335 341 342 339 336
71 69 87 103 100 98 106 109 116 124 137 141 155 152 177 161 201 218 223 253 255 195 191 199 186 189 203 220 219 227 235 244 262 284 305 320 324 322
148 149 136 116 116 114 106 101 105 127 150 153 168 174 203 197 201 206 211 228 275 258 174 236 176 187 202 198 199 205 226 235 244 257 273 289 301 305
162 174 174 151 150 156 146 130 122 135 146 155 167 197 196 202 179 211 229 229 233 240 151 249 218 210 213 204 200 208 219 229 237 250 264 275 285 292
185 176 167 175 179 152 152 162 173 194 194 171 181 200 186 184 184 203 223 240 272 287 153 227 245 230 223 215 215 214 218 225 234 246 261 273 281 285
208 180 175 164 166 165 158 169 173 201 180 160 162 175 165 152 147 94 7 185 271 278 273 213 257 251 238 232 226 211 218 226 233 247 260 269 273 278
203 183 179 165 168 171 178 183 193 209 186 189 214 249 245 230 195 177 184 196 233 269 256 197 258 305 295 264 224 228 235 243 240 251 262 267 268 264
195 185 181 171 172 178 181 187 203 209 200 200 206 216 227 228 213 203 192 184 200 240 235 163 229 224 230 278 271 239 218 233 236 254 264 268 267 256
199 189 183 180 183 191 198 203 212 224 217 201 203 216 218 226 220 203 196 193 202 223 225 174 200 204 222 279 282 287 274 252 227 235 244 267 265 269
201 188 179 185 185 196 208 210 209 209 201 203 214 226 218 211 193 180 189 197 248 265 234 191 191 205 191 232 265 280 293 286 260 259 260 251 246 248
217 183 178 186 194 210 214 218 216 206 196 204 212 220 217 199 189 178 190 197 242 284 280 238 207 193 225 249 250 270 270 276 294 277 272 271 267 248
181 171 178 190 210 219 217 214 212 207 208 207 203 209 214 211 209 185 180 186 214 246 269 273 245 210 212 221 249 254 259 266 266 270 274 276 270 258
170 191 201 204 206 208 208 211 212 213 213 206 200 203 209 211 215 207 198 207 228 239 243 242 240 314 316 285 234 241 251 256 261 261 255 266 275 273
174 198 205 205 213 213 212 213 213 212 204 198 205 212 212 210 208 213 212 221 234 238 241 225 194 192 246 273 276 236 236 256 262 265 256 255 267 271
202 205 212 211 212 212 213 213 210 203 199 203 207 207 200 200 210 215 218 224 235 241 250 241 216 210 222 240 257 266 238 237 248 260 266 268 270 278
212 214 215 213 211 210 209 209 204 202 202 201 208 211 207 199 214 222 223 237 232 233 243 247 240 235 234 245 280 283 271 245 245 248 256 270 285 286
211 212 214 215 210 207 204 202 202 201 202 204 209 212 209 205 216 223 223 230 236 237 245 250 253 241 223 244 264 276 287 294 275 276 274 255 254 264
212 211 210 212 209 202 200 203 203 203 202 202 204 205 204 210 221 227 235 239 245 235 235 252 259 247 245 246 260 273 281 288 293 298 294 287 278 277